[[{"header":{"parameterUnit":"m.s-1","parameterCategory":2,"la1":30.2991,"la2":30.254,"lo1":-89.0895,"lo2":-89.0444,"dy":0.0017,"dx":0.0017,"nx":28,"ny":28,"refTime":"2024-10-17T03:00:00:Z","depth":"0","parameterNumber":2,"parameterNumberName":"U-component_of_CURRENTS"},"data":[0,0,0,0,0,0,0,0,0,0,0,0,0,0,0,0,0,0,0,0,0,0,0,0,0,0,0,0,0,0,0,0,0,0,0,0,0,0,0,0,0,0,0,0,0,0,0,0,0,0,0,0,0,0,0,0,0,0,0.2059,0.2059,0,0.2034,0.2034,0.2033,0.2008,0.2008,0.2008,0.2008,0.1962,0.1961,0.196,0,0,0,0,0,0,0,0,0,0,0,0,0,0.2078,0.2077,0.2059,0.2059,0.2059,0.2034,0.2034,0.2033,0.2008,0.2008,0.2008,0.2008,0.1962,0.1961,0.1959,0,0,0,0,0,0,0,0,0,0,0,0,0,0.206,0.2077,0.2059,0.2045,0.2044,0.2034,0.2034,0.2033,0.2008,0.2008,0.2008,0.2008,0.1963,0.1961,0.1959,0.1952,0,0,0.1954,0.1953,0,0,0,0,0,0,0,0,0.2061,0.2059,0.2047,0.2046,0.2045,0.2026,0.2023,0.2006,0.2008,0.2019,0.2008,0.2008,0.1983,0.198,0.1972,0.195,0.1948,0.1954,0.1953,0.1952,0.1952,0,0,0,0,0,0,0,0.2063,0.206,0.2047,0.2047,0.2046,0.2038,0.2035,0.202,0.2,0.2018,0.2017,0.2018,0.1982,0.1974,0.1971,0.1947,0.1954,0.1953,0.1951,0.1951,0.1943,0.1944,0,0,0,0,0,0,0.2071,0.2061,0.2047,0.2046,0.2056,0.2038,0.2035,0.203,0.2001,0.1997,0.2018,0.2017,0.1977,0.1973,0.1969,0.1976,0.1952,0.1951,0.195,0.1942,0.1943,0.1944,0,0,0,0,0,0,0.2072,0.207,0.2048,0.2056,0.2053,0.2038,0.2033,0.203,0.2027,0.2001,0.1997,0.2019,0.1977,0.1972,0.1963,0.1973,0.195,0.1948,0.1941,0.1943,0.1944,0.1978,0,0,0,0,0,0,0.2072,0.207,0.2069,0.2056,0.2053,0.2049,0.2034,0.203,0.2029,0.2027,0.2001,0.1996,0.1976,0.1966,0.1962,0.197,0.1947,0.194,0.1942,0.1943,0.1976,0.198,0.1984,0,0,0,0,0,0.2073,0.2071,0.2069,0.2067,0.2052,0.205,0.2047,0.2035,0.2029,0.203,0.2015,0.1997,0.1973,0.1965,0.196,0.1968,0.194,0.1941,0.1943,0.1974,0.198,0.1984,0,0,0,0,0,0,0.2075,0.2068,0.2066,0.2061,0.206,0.2047,0.2045,0.204,0.2029,0.2026,0.2002,0.1996,0.1996,0.1979,0.1972,0.1973,0.1955,0.1956,0.1981,0.1986,0.199,0.2003,0.1946,0,0,0,0,0,0.2077,0.2074,0.2071,0.2067,0.2069,0.206,0.2057,0.2052,0.2041,0.2036,0.2019,0.2005,0.1998,0.199,0.198,0.1975,0.198,0.198,0.1984,0.1988,0.1996,0.2015,0.2022,0.195,0.195,0.195,0,0,0.2075,0.2073,0.207,0.2068,0.2064,0.2067,0.2057,0.2057,0.2059,0.2033,0.2027,0.2018,0.2002,0.2,0.1998,0.1987,0.2012,0.199,0.1993,0.1999,0.2018,0.2025,0.2031,0.1951,0.1951,0.1951,0,0,0.2073,0.2071,0.207,0.2074,0.2077,0.2074,0.2078,0.2071,0.2069,0.2064,0.2053,0.2055,0.203,0.203,0.2024,0.2046,0.2036,0.2041,0.2066,0.2085,0.2091,0.2096,0.2116,0.2123,0.2039,0.2039,0.2039,0,0.2073,0.2068,0.207,0.2075,0.2077,0.208,0.2083,0.2084,0.2076,0.2078,0.2066,0.206,0.2047,0.2059,0.2067,0.2056,0.2064,0.2046,0.209,0.2096,0.2101,0.2119,0.2127,0.2041,0.2041,0.2041,0.204,0,0.2071,0.2071,0.2073,0.2079,0.2084,0.2088,0.2095,0.2103,0.21,0.2099,0.211,0.2099,0.2097,0.2097,0.2085,0.2117,0.2111,0.2096,0.2078,0.211,0.2128,0.2135,0.2044,0.2043,0.2042,0.2042,0,0,0.2054,0.2068,0.2068,0.207,0.2086,0.2086,0.2105,0.2117,0.213,0.213,0.2145,0.2145,0.2147,0.2143,0.2138,0.2155,0.2199,0.2142,0.2142,0.2162,0.2244,0.2234,0.224,0.2189,0.219,0.2191,0.2244,0,0.205,0.2054,0.2066,0.2071,0.2072,0.2092,0.2106,0.2123,0.2135,0.2154,0.2164,0.2173,0.2162,0.2166,0.2185,0.2197,0.2218,0.2186,0.221,0.2211,0.2198,0.2248,0.2168,0.2208,0.2251,0.2252,0.2253,0,0.2038,0.2043,0.2045,0.2061,0.2065,0.2073,0.21,0.2116,0.2156,0.2169,0.2194,0.2202,0.2238,0.2218,0.2265,0.2245,0.2251,0.2258,0.226,0.2244,0.2214,0.2181,0.2218,0.2164,0.2263,0.2262,0.2261,0,0.2009,0.2025,0.2023,0.2029,0.2053,0.2062,0.2078,0.2116,0.2138,0.2185,0.2208,0.2244,0.2268,0.2287,0.231,0.2289,0.2362,0.2328,0.2327,0.2326,0.226,0.2251,0.2246,0.2362,0.2362,0.2362,0.2362,0,0.1991,0.1989,0.2009,0.2007,0.2013,0.2038,0.2057,0.2088,0.2138,0.2172,0.2213,0.2251,0.2287,0.2331,0.2335,0.2366,0.2383,0.235,0.2345,0.227,0.2262,0.2212,0.2169,0.2364,0.2364,0.2363,0.2363,0,0.1953,0.1968,0.1968,0.199,0.1997,0.2001,0.2042,0.2063,0.2117,0.2169,0.2188,0.2271,0.2333,0.2369,0.2414,0.2402,0.2355,0.2426,0.234,0.2325,0.2255,0.2217,0.2135,0.2058,0.2429,0.2429,0.2429,0,0.1931,0.1928,0.1947,0.1951,0.196,0.1973,0.1989,0.2043,0.2078,0.2178,0.2207,0.2293,0.235,0.2428,0.2433,0.2455,0.2362,0.2377,0.2319,0.226,0.2214,0.212,0.2053,0.2246,0.2244,0.2243,0.2242,0,0.1895,0.1904,0.191,0.1914,0.1925,0.1937,0.1969,0.1992,0.2068,0.2115,0.2194,0.2251,0.2356,0.2359,0.2405,0.24,0.2254,0.2355,0.231,0.2094,0.1973,0.1893,0.2207,0.2232,0.2233,0.2234,0.2235,0.2235,0.1871,0.1865,0.1874,0.1875,0.1886,0.189,0.188,0.1931,0.1967,0.2027,0.2129,0.2191,0.2257,0.232,0.2305,0.2237,0.2201,0.2152,0.212,0.2039,0.193,0.2233,0.2241,0.2242,0.2243,0.2244,0.2245,0,0.1832,0.1832,0.1834,0.1824,0.181,0.1834,0.1857,0.1842,0.1853,0.1948,0.2001,0.2073,0.2093,0.2134,0.2101,0.2008,0.1909,0.1942,0.1784,0.1736,0.2029,0.1988,0.1922,0.1922,0.1922,0.1922,0.1922,0.1922,0.1815,0.1796,0.1792,0.1746,0.1738,0.1687,0.1684,0.168,0.1726,0.1749,0.1796,0.186,0.1948,0.1959,0.1876,0.1827,0.1656,0.1591,0.1569,0.1781,0.1797,0.1813,0.1767,0.1654,0.1654,0.1208,0.1204,0.1202]},{"header":{"parameterUnit":"m.s-1","parameterCategory":2,"la1":30.2991,"la2":30.254,"lo1":-89.0895,"lo2":-89.0444,"dy":0.0017,"dx":0.0017,"nx":28,"ny":28,"refTime":"2024-10-17T03:00:00:Z","depth":"0","parameterNumber":3,"parameterNumberName":"V-component_of_CURRENTS"},"data":[0,0,0,0,0,0,0,0,0,0,0,0,0,0,0,0,0,0,0,0,0,0,0,0,0,0,0,0,0,0,0,0,0,0,0,0,0,0,0,0,0,0,0,0,0,0,0,0,0,0,0,0,0,0,0,0,0,0,-0.0083,-0.0083,0,-0.011,-0.011,-0.011,-0.0123,-0.0123,-0.0123,-0.0123,-0.0141,-0.0141,-0.0142,0,0,0,0,0,0,0,0,0,0,0,0,0,-0.0057,-0.0057,-0.0083,-0.0083,-0.0084,-0.011,-0.011,-0.011,-0.0123,-0.0123,-0.0123,-0.0123,-0.0141,-0.0141,-0.0142,0,0,0,0,0,0,0,0,0,0,0,0,0,-0.0074,-0.0057,-0.0083,-0.0093,-0.0095,-0.011,-0.011,-0.0111,-0.0123,-0.0123,-0.0123,-0.0123,-0.0141,-0.0141,-0.0142,-0.0146,0,0,-0.0144,-0.0144,0,0,0,0,0,0,0,0,-0.0073,-0.0075,-0.0091,-0.0093,-0.0094,-0.0113,-0.0108,-0.0122,-0.0123,-0.0112,-0.0123,-0.0123,-0.0131,-0.0132,-0.0137,-0.0147,-0.0148,-0.0144,-0.0145,-0.0145,-0.0145,0,0,0,0,0,0,0,-0.0072,-0.0074,-0.0093,-0.0092,-0.0093,-0.0102,-0.0104,-0.011,-0.0121,-0.0113,-0.0114,-0.0117,-0.0132,-0.0137,-0.0138,-0.0148,-0.0144,-0.0145,-0.0145,-0.0145,-0.0154,-0.0154,0,0,0,0,0,0,-0.0068,-0.0073,-0.0093,-0.0094,-0.0084,-0.0102,-0.0105,-0.0107,-0.0121,-0.0123,-0.0117,-0.0118,-0.0135,-0.0137,-0.0138,-0.013,-0.0145,-0.0146,-0.0146,-0.0155,-0.0154,-0.0154,0,0,0,0,0,0,-0.0068,-0.007,-0.0092,-0.0084,-0.0088,-0.0102,-0.0105,-0.0107,-0.011,-0.0124,-0.0126,-0.0117,-0.0135,-0.0137,-0.014,-0.0131,-0.0146,-0.0146,-0.0155,-0.0154,-0.0154,-0.0122,0,0,0,0,0,0,-0.0067,-0.0069,-0.0069,-0.0084,-0.0088,-0.0094,-0.0105,-0.0108,-0.0113,-0.0113,-0.0125,-0.0127,-0.0136,-0.0139,-0.014,-0.0132,-0.0147,-0.0155,-0.0155,-0.0154,-0.0123,-0.012,-0.0118,0,0,0,0,0,-0.0066,-0.0062,-0.0069,-0.0071,-0.0087,-0.0094,-0.0096,-0.0107,-0.0112,-0.011,-0.0119,-0.0126,-0.0138,-0.0139,-0.0141,-0.0133,-0.0155,-0.0155,-0.0154,-0.0124,-0.0121,-0.0118,0,0,0,0,0,0,-0.0049,-0.0063,-0.0071,-0.0072,-0.0081,-0.0096,-0.0095,-0.0104,-0.011,-0.011,-0.0124,-0.0126,-0.0126,-0.0135,-0.0136,-0.0135,-0.0148,-0.0148,-0.0124,-0.0121,-0.0119,-0.0106,-0.0148,0,0,0,0,0,-0.0046,-0.0047,-0.0062,-0.0063,-0.0066,-0.0081,-0.0085,-0.0092,-0.0101,-0.0103,-0.0113,-0.0122,-0.0127,-0.0128,-0.0136,-0.0134,-0.0147,-0.0131,-0.0128,-0.0126,-0.0118,-0.0133,-0.0131,-0.0153,-0.0153,-0.0153,0,0,-0.004,-0.0048,-0.0049,-0.0059,-0.0067,-0.0063,-0.0083,-0.0086,-0.008,-0.0104,-0.0099,-0.0115,-0.0126,-0.0124,-0.0124,-0.0129,-0.0128,-0.0125,-0.0123,-0.0116,-0.0133,-0.0131,-0.0129,-0.0152,-0.0152,-0.0153,0,0,-0.0024,-0.0035,-0.003,-0.0033,-0.0043,-0.005,-0.0049,-0.0063,-0.0066,-0.0068,-0.0083,-0.0091,-0.0101,-0.0105,-0.0108,-0.0097,-0.0116,-0.0102,-0.0075,-0.0091,-0.0089,-0.0088,-0.0105,-0.0106,-0.0098,-0.0098,-0.0098,0,-0.0015,-0.001,-0.0028,-0.0021,-0.0018,-0.004,-0.0028,-0.0035,-0.0047,-0.0046,-0.0061,-0.0076,-0.009,-0.0081,-0.0079,-0.009,-0.0104,-0.0085,-0.0087,-0.0086,-0.0085,-0.0103,-0.0104,-0.0096,-0.0096,-0.0097,-0.0097,0,0.0006,0.0011,0.0016,0.0018,0.0018,0.0026,0.0015,0.0015,0.0004,-0.0006,-0.0009,-0.0033,-0.004,-0.0048,-0.006,-0.0057,-0.0071,-0.0084,-0.0093,-0.0081,-0.0101,-0.0103,-0.0094,-0.0095,-0.0095,-0.0095,0,0,0.003,0.0031,0.0035,0.0045,0.0043,0.0048,0.0057,0.0062,0.0075,0.0049,0.006,0.0038,0.0018,0.0012,-0.0009,-0.0023,-0.0035,-0.0048,-0.0049,-0.0062,-0.0072,-0.0085,-0.0088,-0.0051,-0.0051,-0.005,-0.009,0,0.0057,0.008,0.0074,0.0102,0.0116,0.0105,0.012,0.0119,0.0111,0.0113,0.0083,0.008,0.0044,0.0039,0.0019,-0.0017,-0.0037,-0.0023,-0.0085,-0.0086,-0.0096,-0.0089,-0.0075,-0.0109,-0.0092,-0.0092,-0.0092,0,0.0086,0.0099,0.0129,0.0151,0.0157,0.0168,0.0191,0.02,0.0195,0.0187,0.0172,0.0144,0.0124,0.0085,0.0028,0.0037,-0.0013,-0.0049,-0.0052,-0.0074,-0.0101,-0.0118,-0.0112,-0.0206,-0.0095,-0.0095,-0.0094,0,0.012,0.0143,0.0169,0.0176,0.0192,0.0206,0.0216,0.0221,0.0242,0.0231,0.024,0.0201,0.019,0.0123,0.0045,0.0036,-0.0023,-0.0047,-0.0107,-0.0109,-0.0113,-0.0115,-0.0199,-0.0092,-0.0092,-0.0092,-0.0092,0,0.0156,0.018,0.0185,0.0202,0.0242,0.0237,0.0277,0.0282,0.0296,0.0329,0.0278,0.0295,0.0199,0.0153,0.0068,-0.0019,-0.0008,-0.0098,-0.0118,-0.0102,-0.0102,-0.0196,-0.0258,-0.0094,-0.0093,-0.0093,-0.0093,0,0.0189,0.0192,0.0226,0.0247,0.0257,0.0284,0.0322,0.0354,0.0355,0.0396,0.0396,0.037,0.0312,0.0209,0.0108,0.0021,-0.0128,-0.0106,-0.0082,-0.0097,-0.0243,-0.0303,-0.0406,-0.047,-0.0178,-0.0179,-0.0179,0,0.0208,0.0227,0.0259,0.0285,0.0296,0.0332,0.0366,0.0383,0.0423,0.0448,0.048,0.0436,0.0425,0.0268,0.0114,-0.0036,-0.0141,-0.0136,-0.0154,-0.0246,-0.0327,-0.0364,-0.0414,-0.015,-0.015,-0.0151,-0.0151,0,0.0249,0.0256,0.0283,0.0331,0.0369,0.0415,0.0462,0.0505,0.0533,0.057,0.0613,0.0603,0.0463,0.0335,0.0125,0.0008,-0.0209,-0.0144,-0.0243,-0.0314,-0.0355,-0.0427,-0.0135,-0.0152,-0.0152,-0.0152,-0.0152,-0.0152,0.028,0.0303,0.0334,0.0381,0.0428,0.0487,0.0527,0.059,0.0659,0.0714,0.0713,0.0714,0.0525,0.0252,0.0086,-0.0209,-0.0225,-0.0298,-0.0363,-0.0392,-0.0454,-0.0165,-0.0201,-0.0202,-0.0202,-0.0202,-0.0202,0,0.0316,0.0337,0.0383,0.0434,0.0482,0.0502,0.0586,0.0625,0.0707,0.0772,0.0806,0.0714,0.0487,0.0219,-0.0154,-0.0372,-0.0467,-0.0506,-0.0556,-0.0599,-0.034,-0.0337,-0.0398,-0.0398,-0.0398,-0.0398,-0.0398,-0.0398,0.0335,0.0374,0.0388,0.0462,0.05,0.0555,0.0598,0.0668,0.0726,0.0774,0.0777,0.0758,0.0541,-0.0018,-0.0458,-0.0577,-0.0758,-0.0783,-0.089,-0.0708,-0.0693,-0.0679,-0.0691,-0.0825,-0.0825,-0.1108,-0.1111,-0.1113]}],[{"header":{"parameterUnit":"m.s-1","parameterCategory":2,"la1":30.2991,"la2":30.254,"lo1":-89.0895,"lo2":-89.0444,"dy":0.0017,"dx":0.0017,"nx":28,"ny":28,"refTime":"2024-10-17T03:00:00:Z","depth":"2","parameterNumber":2,"parameterNumberName":"U-component_of_CURRENTS"},"data":[0,0,0,0,0,0,0,0,0,0,0,0,0,0,0,0,0,0,0,0,0,0,0,0,0,0,0,0,0,0,0,0,0,0,0,0,0,0,0,0,0,0,0,0,0,0,0,0,0,0,0,0,0,0,0,0,0,0,0.2056,0.2056,0,0.2036,0.2035,0.2035,0.2013,0.2013,0.2013,0.2013,0.1973,0.1972,0.1971,0,0,0,0,0,0,0,0,0,0,0,0,0,0.207,0.207,0.2056,0.2056,0.2056,0.2036,0.2035,0.2035,0.2013,0.2013,0.2013,0.2013,0.1974,0.1972,0.1971,0,0,0,0,0,0,0,0,0,0,0,0,0,0.2056,0.207,0.2056,0.2045,0.2044,0.2036,0.2035,0.2034,0.2013,0.2013,0.2013,0.2013,0.1974,0.1972,0.1971,0.1964,0,0,0.1966,0.1966,0,0,0,0,0,0,0,0,0.2057,0.2055,0.2047,0.2046,0.2045,0.2029,0.2026,0.2011,0.2013,0.2022,0.2013,0.2013,0.1992,0.1989,0.1982,0.1962,0.1961,0.1966,0.1965,0.1965,0.1964,0,0,0,0,0,0,0,0.2058,0.2056,0.2046,0.2047,0.2045,0.2039,0.2036,0.2023,0.2006,0.2022,0.2021,0.2022,0.1991,0.1983,0.1981,0.196,0.1966,0.1965,0.1964,0.1964,0.1961,0.1962,0,0,0,0,0,0,0.2066,0.2057,0.2046,0.2045,0.2053,0.2039,0.2036,0.2032,0.2006,0.2003,0.2022,0.2021,0.1986,0.1983,0.1979,0.1989,0.1965,0.1963,0.1963,0.196,0.1961,0.1962,0,0,0,0,0,0,0.2066,0.2065,0.2047,0.2053,0.2051,0.2039,0.2035,0.2032,0.203,0.2007,0.2003,0.2025,0.1986,0.1982,0.1976,0.1987,0.1963,0.1961,0.1959,0.1961,0.1962,0.1996,0,0,0,0,0,0,0.2066,0.2065,0.2065,0.2053,0.2051,0.2049,0.2035,0.2032,0.2032,0.2031,0.2008,0.2004,0.1985,0.1978,0.1975,0.1984,0.196,0.1958,0.196,0.1961,0.1994,0.1998,0.2002,0,0,0,0,0,0.2067,0.2067,0.2065,0.2064,0.2051,0.205,0.2048,0.2037,0.2033,0.2035,0.2022,0.2005,0.1986,0.1978,0.1973,0.1982,0.1958,0.1959,0.1961,0.1992,0.1997,0.2002,0,0,0,0,0,0,0.207,0.2064,0.2063,0.206,0.206,0.2048,0.2048,0.2044,0.2034,0.2033,0.201,0.2006,0.2007,0.1992,0.1984,0.1988,0.1971,0.1972,0.1996,0.2001,0.2005,0.2017,0.1959,0,0,0,0,0,0.2073,0.2071,0.2068,0.2067,0.2069,0.2061,0.206,0.2055,0.2046,0.2042,0.2027,0.2015,0.2011,0.2004,0.1995,0.1992,0.1997,0.1998,0.2002,0.2006,0.2014,0.2033,0.204,0.1968,0.1968,0.1968,0,0,0.2072,0.2071,0.2068,0.2068,0.2065,0.2069,0.2059,0.2061,0.2064,0.2039,0.2036,0.2029,0.2015,0.2015,0.2014,0.2003,0.203,0.2008,0.2011,0.2018,0.2036,0.2043,0.2049,0.197,0.1969,0.1969,0,0,0.2071,0.2072,0.2071,0.2076,0.208,0.2077,0.2082,0.2076,0.2075,0.2072,0.2063,0.2067,0.2045,0.2045,0.2041,0.2064,0.2054,0.2059,0.2084,0.2103,0.2109,0.2114,0.2133,0.2139,0.2058,0.2058,0.2058,0,0.2073,0.207,0.2072,0.2078,0.2081,0.2084,0.2087,0.209,0.2083,0.2087,0.2076,0.2074,0.2062,0.2075,0.2084,0.2074,0.2081,0.2064,0.2108,0.2113,0.2118,0.2136,0.2143,0.2059,0.2059,0.2059,0.2059,0,0.2072,0.2074,0.2077,0.2084,0.209,0.2094,0.2102,0.211,0.2109,0.2109,0.2122,0.2113,0.2113,0.2113,0.2103,0.2135,0.2129,0.2114,0.2095,0.2128,0.2144,0.2151,0.2062,0.2061,0.2061,0.206,0,0,0.2059,0.2073,0.2073,0.2076,0.2093,0.2094,0.2113,0.2126,0.214,0.2141,0.2157,0.216,0.2162,0.216,0.2155,0.2172,0.2215,0.216,0.216,0.2178,0.2259,0.2245,0.2251,0.2206,0.2207,0.2208,0.2259,0,0.2056,0.2061,0.2073,0.2079,0.2081,0.2101,0.2116,0.2133,0.2147,0.2166,0.2178,0.2188,0.2178,0.2182,0.2201,0.2213,0.2233,0.2203,0.2226,0.2227,0.221,0.2259,0.2045,0.2071,0.2265,0.2266,0.2267,0,0.2046,0.2051,0.2055,0.2072,0.2076,0.2084,0.2112,0.2129,0.2169,0.2182,0.2208,0.2217,0.2253,0.2234,0.228,0.226,0.2267,0.2274,0.2275,0.2255,0.2225,0.2069,0.2076,0.2278,0.2277,0.2276,0.2275,0,0.2018,0.2035,0.2035,0.2041,0.2066,0.2075,0.2092,0.213,0.2152,0.22,0.2223,0.2258,0.2283,0.2301,0.2324,0.2303,0.2374,0.2341,0.2336,0.2335,0.2155,0.2136,0.2375,0.2375,0.2375,0.2375,0.2375,0,0.2002,0.2001,0.2021,0.2021,0.2028,0.2053,0.2073,0.2104,0.2154,0.2187,0.2228,0.2265,0.2302,0.2344,0.2348,0.2376,0.2394,0.2358,0.2353,0.2162,0.2144,0.232,0.2313,0.2377,0.2376,0.2376,0.2376,0,0.1966,0.1981,0.1982,0.2006,0.2013,0.2018,0.206,0.2081,0.2135,0.2185,0.2205,0.2286,0.2345,0.238,0.2424,0.241,0.243,0.243,0.2212,0.2181,0.237,0.2364,0.2427,0.2427,0.2427,0.2428,0.2428,0,0.1945,0.1943,0.1963,0.1967,0.1976,0.1991,0.2007,0.2062,0.2096,0.2194,0.2222,0.2305,0.2354,0.2427,0.2407,0.242,0.2456,0.2235,0.216,0.239,0.2379,0.2373,0.2367,0.1931,0.1927,0.1923,0.1921,0,0.1911,0.192,0.1927,0.1932,0.1943,0.1955,0.1988,0.201,0.2085,0.2127,0.2202,0.2252,0.233,0.225,0.2281,0.2259,0.2216,0.2172,0.246,0.1965,0.1929,0.1916,0.1925,0.1891,0.1894,0.1896,0.1898,0.1899,0.1887,0.1882,0.1892,0.1893,0.1905,0.1909,0.1899,0.1937,0.1967,0.1993,0.2103,0.2088,0.211,0.205,0.1996,0.1949,0.2111,0.1991,0.1997,0.2007,0.1956,0.1924,0.1874,0.1877,0.1879,0.1882,0.1883,0,0.1846,0.185,0.1853,0.1843,0.1824,0.1854,0.1876,0.1838,0.1828,0.1861,0.1881,0.1721,0.1671,0.1697,0.158,0.1602,0.1548,0.1534,0.1418,0.1451,0.1479,0.1395,0.1167,0.1165,0.1163,0.1161,0,0,0.1828,0.1808,0.1804,0.1756,0.1752,0.1693,0.1689,0.1644,0.1635,0.1561,0.1511,0.1587,0.1654,0.1372,0.1348,0.1234,0.1331,0.1189,0.1767,0.1664,0.1689,0.1753,0.1664,0,0,0,0,0]},{"header":{"parameterUnit":"m.s-1","parameterCategory":2,"la1":30.2991,"la2":30.254,"lo1":-89.0895,"lo2":-89.0444,"dy":0.0017,"dx":0.0017,"nx":28,"ny":28,"refTime":"2024-10-17T03:00:00:Z","depth":"2","parameterNumber":3,"parameterNumberName":"V-component_of_CURRENTS"},"data":[0,0,0,0,0,0,0,0,0,0,0,0,0,0,0,0,0,0,0,0,0,0,0,0,0,0,0,0,0,0,0,0,0,0,0,0,0,0,0,0,0,0,0,0,0,0,0,0,0,0,0,0,0,0,0,0,0,0,-0.0008,-0.0008,0,-0.0035,-0.0035,-0.0036,-0.005,-0.005,-0.005,-0.005,-0.0069,-0.007,-0.007,0,0,0,0,0,0,0,0,0,0,0,0,0,0.002,0.0019,-0.0008,-0.0008,-0.0008,-0.0035,-0.0035,-0.0036,-0.005,-0.005,-0.005,-0.0051,-0.0069,-0.007,-0.007,0,0,0,0,0,0,0,0,0,0,0,0,0,0.0002,0.0019,-0.0008,-0.0019,-0.002,-0.0035,-0.0035,-0.0036,-0.005,-0.005,-0.005,-0.0051,-0.0069,-0.007,-0.007,-0.0073,0,0,-0.0072,-0.0073,0,0,0,0,0,0,0,0,0.0003,0.0001,-0.0017,-0.0018,-0.002,-0.004,-0.0033,-0.0048,-0.005,-0.0039,-0.005,-0.0051,-0.0059,-0.006,-0.0065,-0.0073,-0.0074,-0.0072,-0.0073,-0.0073,-0.0073,0,0,0,0,0,0,0,0.0004,0.0002,-0.0018,-0.0017,-0.0019,-0.0027,-0.003,-0.0036,-0.0047,-0.004,-0.0041,-0.0044,-0.0059,-0.0064,-0.0065,-0.0075,-0.0072,-0.0073,-0.0073,-0.0074,-0.0083,-0.0083,0,0,0,0,0,0,0.0008,0.0003,-0.0017,-0.0019,-0.0009,-0.0028,-0.003,-0.0033,-0.0048,-0.005,-0.0044,-0.0045,-0.0063,-0.0065,-0.0066,-0.0059,-0.0073,-0.0074,-0.0074,-0.0083,-0.0083,-0.0083,0,0,0,0,0,0,0.0008,0.0006,-0.0016,-0.0009,-0.0012,-0.0028,-0.0031,-0.0033,-0.0038,-0.0051,-0.0054,-0.0046,-0.0063,-0.0065,-0.0068,-0.006,-0.0074,-0.0075,-0.0083,-0.0083,-0.0083,-0.0052,0,0,0,0,0,0,0.0009,0.0007,0.0006,-0.0009,-0.0013,-0.002,-0.0031,-0.0034,-0.004,-0.0041,-0.0053,-0.0055,-0.0063,-0.0067,-0.0069,-0.0062,-0.0075,-0.0083,-0.0083,-0.0083,-0.0054,-0.0051,-0.0049,0,0,0,0,0,0.001,0.0014,0.0006,0.0004,-0.0013,-0.0019,-0.0022,-0.0033,-0.004,-0.0038,-0.0047,-0.0055,-0.0067,-0.0067,-0.0069,-0.0062,-0.0084,-0.0083,-0.0083,-0.0055,-0.0052,-0.0049,0,0,0,0,0,0,0.0027,0.0012,0.0004,0.0002,-0.0007,-0.0022,-0.0022,-0.0031,-0.0038,-0.0039,-0.0052,-0.0055,-0.0055,-0.0064,-0.0064,-0.0065,-0.0077,-0.0077,-0.0054,-0.0052,-0.0049,-0.0037,-0.0076,0,0,0,0,0,0.0029,0.0027,0.0012,0.0011,0.0008,-0.0008,-0.0012,-0.002,-0.0029,-0.0032,-0.0042,-0.0051,-0.0056,-0.0057,-0.0065,-0.0064,-0.0076,-0.0061,-0.0059,-0.0057,-0.0049,-0.0065,-0.0063,-0.0082,-0.0082,-0.0082,0,0,0.0034,0.0027,0.0025,0.0014,0.0006,0.0009,-0.001,-0.0014,-0.0009,-0.0033,-0.003,-0.0045,-0.0055,-0.0054,-0.0055,-0.0059,-0.006,-0.0057,-0.0055,-0.0048,-0.0064,-0.0062,-0.0061,-0.0081,-0.0081,-0.0081,0,0,0.0048,0.0038,0.0042,0.0038,0.0028,0.0021,0.0021,0.0007,0.0003,0.0,-0.0014,-0.0023,-0.0033,-0.0037,-0.004,-0.003,-0.0049,-0.0035,-0.001,-0.0026,-0.0024,-0.0023,-0.0041,-0.0041,-0.0032,-0.0031,-0.0031,0,0.0056,0.006,0.0043,0.0049,0.0052,0.003,0.0041,0.0034,0.002,0.0022,0.0006,-0.001,-0.0022,-0.0015,-0.0013,-0.0023,-0.0038,-0.0019,-0.0022,-0.0021,-0.0021,-0.0039,-0.004,-0.003,-0.003,-0.003,-0.003,0,0.0075,0.008,0.0084,0.0086,0.0085,0.0092,0.0081,0.008,0.0068,0.0059,0.0055,0.0032,0.0024,0.0016,0.0004,0.0007,-0.0008,-0.002,-0.0027,-0.0017,-0.0037,-0.0039,-0.0028,-0.0028,-0.0029,-0.0029,0,0,0.0097,0.0097,0.0101,0.0111,0.0108,0.0112,0.0121,0.0125,0.0137,0.011,0.0121,0.0099,0.0078,0.0073,0.0053,0.0039,0.0025,0.0014,0.0013,-0.0,-0.0013,-0.0025,-0.0029,0.001,0.001,0.001,-0.003,0,0.0121,0.0143,0.0137,0.0163,0.0176,0.0166,0.018,0.0178,0.017,0.0172,0.0142,0.0139,0.0103,0.0098,0.0078,0.0043,0.0023,0.0037,-0.0024,-0.0025,-0.0035,-0.003,0.0003,-0.003,-0.0032,-0.0032,-0.0033,0,0.0147,0.016,0.0187,0.0209,0.0214,0.0225,0.0247,0.0255,0.025,0.0243,0.0227,0.02,0.0179,0.0142,0.0085,0.0094,0.0044,0.0009,0.0007,-0.0014,-0.0041,-0.0041,-0.0033,-0.0036,-0.0035,-0.0035,-0.0035,0,0.0178,0.02,0.0224,0.0231,0.0247,0.026,0.027,0.0275,0.0295,0.0284,0.0293,0.0255,0.0243,0.0177,0.0101,0.0091,0.0033,0.0011,-0.005,-0.0051,-0.0038,-0.0039,-0.0035,-0.0035,-0.0035,-0.0035,-0.0035,0,0.0211,0.0233,0.0239,0.0254,0.0293,0.0289,0.0328,0.0333,0.0347,0.0379,0.0329,0.0345,0.0251,0.0205,0.0122,0.0037,0.0047,-0.0042,-0.006,-0.0028,-0.0027,-0.0043,-0.0044,-0.0037,-0.0036,-0.0036,-0.0036,0,0.024,0.0243,0.0276,0.0296,0.0307,0.0333,0.0371,0.0402,0.0403,0.0443,0.0443,0.0417,0.036,0.0259,0.0159,0.0074,-0.0014,-0.005,-0.0008,-0.0021,-0.0096,-0.0094,-0.0121,-0.0122,-0.0123,-0.0123,-0.0124,0,0.0257,0.0274,0.0307,0.0332,0.0343,0.0378,0.0411,0.0429,0.0469,0.0494,0.0525,0.0481,0.047,0.0315,0.0169,0.0023,-0.0009,-0.0062,-0.0077,-0.0088,-0.0104,-0.0101,-0.0099,-0.0051,-0.0051,-0.005,-0.005,0,0.0294,0.0301,0.0327,0.0375,0.0412,0.0458,0.0506,0.0548,0.0577,0.0613,0.0654,0.0644,0.051,0.0386,0.018,0.0078,-0.0037,-0.0065,-0.008,-0.0035,-0.0025,-0.0039,-0.0039,-0.0049,-0.0049,-0.0049,-0.0049,-0.0049,0.0323,0.0345,0.0376,0.0422,0.0469,0.0529,0.0569,0.0634,0.0702,0.0754,0.0748,0.0731,0.0592,0.0342,0.0178,-0.0013,-0.0017,-0.0093,-0.0091,-0.0091,-0.0076,-0.0068,-0.0097,-0.0098,-0.0098,-0.0098,-0.0099,0,0.0357,0.0377,0.0422,0.0473,0.0526,0.0542,0.0627,0.0676,0.076,0.0804,0.0833,0.0707,0.0571,0.039,0.0125,-0.0034,-0.0043,-0.0098,-0.0065,-0.0065,-0.0065,-0.0048,-0.0063,-0.0063,-0.0064,-0.0064,0,0,0.0377,0.0416,0.0431,0.0507,0.0544,0.0612,0.0656,0.0743,0.0794,0.0843,0.0831,0.0813,0.0613,0.043,0.0232,0.008,0.0034,0.0043,0.0033,0.0095,0.0097,-0.0042,-0.0013,0,0,0,0,0]}],[{"header":{"parameterUnit":"m.s-1","parameterCategory":2,"la1":30.2991,"la2":30.254,"lo1":-89.0895,"lo2":-89.0444,"dy":0.0017,"dx":0.0017,"nx":28,"ny":28,"refTime":"2024-10-17T03:00:00:Z","depth":"4","parameterNumber":2,"parameterNumberName":"U-component_of_CURRENTS"},"data":[0,0,0,0,0,0,0,0,0,0,0,0,0,0,0,0,0,0,0,0,0,0,0,0,0,0,0,0,0,0,0,0,0,0,0,0,0,0,0,0,0,0,0,0,0,0,0,0,0,0,0,0,0,0,0,0,0,0,0.1337,0.1338,0,0.1377,0.1378,0.1378,0.1419,0.142,0.1421,0.1421,0.1471,0.1472,0.1472,0,0,0,0,0,0,0,0,0,0,0,0,0,0.129,0.129,0.1337,0.1338,0.1338,0.1377,0.1378,0.1378,0.1419,0.142,0.1421,0.1422,0.1471,0.1472,0.1472,0,0,0,0,0,0,0,0,0,0,0,0,0,0.1317,0.1291,0.1337,0.1365,0.1368,0.1377,0.1378,0.1378,0.1419,0.142,0.1421,0.1422,0.1471,0.1471,0.1472,0.1458,0,0,0.1476,0.1476,0,0,0,0,0,0,0,0,0.1315,0.1318,0.136,0.1363,0.1366,0.1396,0.138,0.1406,0.1419,0.1398,0.1421,0.1423,0.1447,0.145,0.1453,0.146,0.1462,0.1476,0.1476,0.1477,0.1477,0,0,0,0,0,0,0,0.1313,0.1317,0.1351,0.1361,0.1364,0.1373,0.1378,0.1384,0.1415,0.14,0.1403,0.141,0.1449,0.1452,0.1454,0.1463,0.1476,0.1476,0.1477,0.1478,0.155,0.1551,0,0,0,0,0,0,0.1311,0.1315,0.135,0.1353,0.1345,0.1373,0.1379,0.1384,0.1415,0.1421,0.1409,0.1412,0.1449,0.1453,0.1456,0.1519,0.1477,0.1478,0.1478,0.1548,0.155,0.1551,0,0,0,0,0,0,0.1309,0.1313,0.1349,0.1336,0.1342,0.1373,0.1379,0.1384,0.1418,0.1422,0.1428,0.1441,0.145,0.1455,0.149,0.1518,0.1478,0.1479,0.1547,0.1549,0.1551,0.1594,0,0,0,0,0,0,0.1308,0.1312,0.133,0.1336,0.1342,0.1374,0.1378,0.1384,0.1419,0.1424,0.1451,0.1455,0.1452,0.1489,0.1491,0.1519,0.148,0.1545,0.1548,0.155,0.1591,0.1597,0.1603,0,0,0,0,0,0.1306,0.132,0.133,0.1335,0.136,0.1375,0.1379,0.1404,0.142,0.1438,0.146,0.1456,0.1507,0.1491,0.1493,0.1522,0.1544,0.1547,0.155,0.1588,0.1596,0.1603,0,0,0,0,0,0,0.1311,0.1326,0.1337,0.1357,0.1375,0.1383,0.1407,0.142,0.145,0.1466,0.1469,0.1474,0.1517,0.1513,0.1496,0.1551,0.1526,0.1529,0.1554,0.1562,0.1567,0.1571,0.1481,0,0,0,0,0,0.1318,0.1336,0.1348,0.1369,0.138,0.1399,0.1415,0.1431,0.1451,0.1467,0.1485,0.1506,0.1525,0.154,0.1554,0.158,0.1579,0.1602,0.1608,0.1613,0.1619,0.164,0.1648,0.1561,0.1561,0.1561,0,0,0.1327,0.1338,0.135,0.1372,0.139,0.1408,0.1412,0.1444,0.1468,0.1466,0.1515,0.1529,0.1537,0.1571,0.159,0.1575,0.1638,0.1616,0.162,0.1624,0.1644,0.1652,0.1659,0.1563,0.1563,0.1562,0,0,0.1342,0.1364,0.1381,0.1397,0.1429,0.1437,0.1453,0.1479,0.1503,0.154,0.155,0.1584,0.161,0.1623,0.163,0.1677,0.1669,0.1686,0.1718,0.1739,0.1746,0.1752,0.1763,0.177,0.1688,0.1688,0.1688,0,0.1356,0.1373,0.139,0.1409,0.1428,0.1453,0.1475,0.1499,0.1536,0.1557,0.1565,0.1621,0.1633,0.167,0.1691,0.1691,0.1698,0.1689,0.1746,0.1752,0.1758,0.1767,0.1774,0.169,0.169,0.169,0.169,0,0.1371,0.1398,0.1412,0.1443,0.1465,0.1491,0.1518,0.1554,0.1586,0.1605,0.1661,0.1679,0.1711,0.1724,0.1723,0.1773,0.1764,0.1751,0.1726,0.1769,0.1776,0.1783,0.1694,0.1693,0.1692,0.1692,0,0,0.1366,0.1414,0.1422,0.1442,0.1487,0.1501,0.155,0.1589,0.1624,0.1668,0.1709,0.1753,0.1772,0.1782,0.1792,0.1814,0.1863,0.1807,0.1807,0.1813,0.1909,0.1787,0.1782,0.1863,0.1864,0.1865,0.1898,0,0.1377,0.1412,0.1437,0.1479,0.1497,0.1538,0.1576,0.1619,0.166,0.1707,0.1743,0.1786,0.179,0.1816,0.1842,0.1861,0.1883,0.1856,0.187,0.187,0.1752,0.1786,0.187,0.1902,0.1904,0.1905,0.1905,0,0.1376,0.1401,0.1442,0.1492,0.1506,0.154,0.1604,0.1642,0.171,0.1744,0.1796,0.1823,0.1879,0.1869,0.1925,0.191,0.1919,0.1925,0.1926,0.1801,0.1759,0.185,0.1917,0.1916,0.1915,0.1914,0.1914,0,0.1345,0.1401,0.1435,0.1453,0.1515,0.1551,0.1593,0.1659,0.1697,0.1776,0.1809,0.187,0.1911,0.1937,0.1963,0.1952,0.201,0.1989,0.1885,0.1877,0.1958,0.1951,0.2024,0.2024,0.2024,0.2023,0.2023,0,0.1326,0.1356,0.1429,0.1445,0.1491,0.1543,0.16,0.1651,0.1724,0.1762,0.1832,0.1862,0.1934,0.1971,0.198,0.1951,0.2025,0.1895,0.1877,0.1975,0.197,0.1962,0.1954,0.2025,0.2024,0.2024,0.2024,0,0.1281,0.133,0.1372,0.1449,0.1477,0.1513,0.16,0.1632,0.1714,0.1767,0.1796,0.188,0.192,0.1968,0.2013,0.196,0.1951,0.1922,0.2031,0.2019,0.1799,0.1794,0.1798,0.1794,0.1791,0.1788,0.1786,0,0.1256,0.1276,0.1366,0.1394,0.1435,0.1497,0.1533,0.1621,0.1653,0.1756,0.1768,0.1845,0.1885,0.1844,0.191,0.191,0.189,0.187,0.1826,0.1793,0.1777,0.1777,0.1776,0.178,0.1779,0.1778,0.1778,0,0.1209,0.1258,0.1294,0.1349,0.1397,0.1434,0.1496,0.1505,0.1596,0.1686,0.1685,0.1696,0.1737,0.1761,0.1777,0.1776,0.1872,0.1834,0.184,0.1798,0.1772,0.1758,0.1762,0.1766,0.1767,0.1769,0.1769,0,0.1182,0.1195,0.1251,0.1286,0.1342,0.1347,0.1389,0.1411,0.1447,0.1554,0.1554,0.1629,0.1715,0.1692,0.1709,0.1696,0.1666,0.1603,0.1621,0.1635,0.1567,0.1508,0.1408,0,0,0,0,0,0.1142,0.1144,0.1177,0.1201,0.125,0.1279,0.1348,0.139,0.1477,0.1433,0.1483,0.1507,0.1513,0.1561,0.1515,0.1652,0.1687,0.1592,0.1627,0.17,0.1714,0.1649,0,0,0,0,0,0,0.1114,0.1146,0.1147,0.112,0.112,0.1154,0.1195,0.1256,0.1234,0.133,0.1342,0.1414,0.1451,0.152,0.1484,0.1499,0.1489,0.1647,0.1643,0.1692,0.1705,0.1716,0.1654,0,0,0,0,0]},{"header":{"parameterUnit":"m.s-1","parameterCategory":2,"la1":30.2991,"la2":30.254,"lo1":-89.0895,"lo2":-89.0444,"dy":0.0017,"dx":0.0017,"nx":28,"ny":28,"refTime":"2024-10-17T03:00:00:Z","depth":"4","parameterNumber":3,"parameterNumberName":"V-component_of_CURRENTS"},"data":[0,0,0,0,0,0,0,0,0,0,0,0,0,0,0,0,0,0,0,0,0,0,0,0,0,0,0,0,0,0,0,0,0,0,0,0,0,0,0,0,0,0,0,0,0,0,0,0,0,0,0,0,0,0,0,0,0,0,0.0129,0.0129,0,0.0108,0.0108,0.0108,0.0095,0.0095,0.0095,0.0095,0.0079,0.0079,0.0078,0,0,0,0,0,0,0,0,0,0,0,0,0,0.0149,0.0149,0.0129,0.0129,0.0129,0.0108,0.0108,0.0108,0.0095,0.0095,0.0095,0.0095,0.0079,0.0079,0.0078,0,0,0,0,0,0,0,0,0,0,0,0,0,0.0136,0.0149,0.0129,0.012,0.0119,0.0108,0.0108,0.0107,0.0095,0.0095,0.0095,0.0095,0.0079,0.0079,0.0078,0.0078,0,0,0.0077,0.0076,0,0,0,0,0,0,0,0,0.0137,0.0135,0.0121,0.012,0.0119,0.0104,0.0109,0.0098,0.0095,0.0104,0.0095,0.0094,0.0088,0.0086,0.0083,0.0077,0.0076,0.0077,0.0076,0.0076,0.0076,0,0,0,0,0,0,0,0.0137,0.0136,0.0121,0.0121,0.012,0.0113,0.0111,0.0107,0.0097,0.0103,0.0102,0.0099,0.0087,0.0084,0.0083,0.0076,0.0077,0.0076,0.0076,0.0076,0.0064,0.0064,0,0,0,0,0,0,0.014,0.0137,0.0122,0.0121,0.0127,0.0113,0.0111,0.0109,0.0097,0.0095,0.01,0.0099,0.0084,0.0083,0.0082,0.0084,0.0076,0.0076,0.0075,0.0064,0.0064,0.0064,0,0,0,0,0,0,0.0141,0.0139,0.0123,0.0128,0.0125,0.0113,0.0111,0.0109,0.0106,0.0094,0.0092,0.0099,0.0084,0.0083,0.008,0.0083,0.0075,0.0075,0.0064,0.0064,0.0064,0.0085,0,0,0,0,0,0,0.0141,0.0139,0.0141,0.0128,0.0125,0.0119,0.0111,0.0108,0.0104,0.0103,0.0093,0.0091,0.0084,0.0081,0.008,0.0082,0.0074,0.0064,0.0064,0.0064,0.0085,0.0086,0.0087,0,0,0,0,0,0.0142,0.0146,0.0141,0.014,0.0127,0.012,0.0118,0.0108,0.0104,0.0105,0.0098,0.0091,0.008,0.0081,0.0079,0.0081,0.0064,0.0064,0.0064,0.0084,0.0086,0.0087,0,0,0,0,0,0,0.0156,0.0144,0.0139,0.0139,0.0131,0.0117,0.0118,0.011,0.0105,0.0105,0.0094,0.0092,0.0089,0.0082,0.0083,0.0077,0.007,0.0069,0.0086,0.0087,0.0088,0.0098,0.0074,0,0,0,0,0,0.016,0.0159,0.0146,0.0147,0.0143,0.0131,0.0127,0.012,0.0112,0.011,0.0101,0.0093,0.0088,0.0085,0.0078,0.0078,0.0067,0.0077,0.0078,0.0079,0.0085,0.0069,0.007,0.0064,0.0064,0.0064,0,0,0.0165,0.0159,0.0158,0.015,0.0143,0.0143,0.0129,0.0125,0.0126,0.0109,0.011,0.0098,0.0088,0.0086,0.0084,0.0081,0.0074,0.0079,0.008,0.0086,0.0069,0.007,0.007,0.0064,0.0064,0.0064,0,0,0.0175,0.0171,0.0173,0.0168,0.016,0.0153,0.0153,0.0139,0.0136,0.0132,0.0121,0.0112,0.0103,0.0096,0.0092,0.0097,0.0081,0.0091,0.0108,0.0092,0.0092,0.0093,0.0076,0.0075,0.0093,0.0093,0.0093,0,0.0183,0.0184,0.0173,0.0174,0.0175,0.0159,0.0165,0.0159,0.0146,0.0147,0.0136,0.012,0.0109,0.0109,0.0108,0.0101,0.0088,0.0104,0.0094,0.0094,0.0094,0.0077,0.0075,0.0094,0.0094,0.0094,0.0093,0,0.0193,0.0196,0.0199,0.0197,0.0196,0.0199,0.019,0.0188,0.018,0.0172,0.0166,0.0147,0.0139,0.013,0.0121,0.0116,0.0106,0.0097,0.0092,0.0096,0.0078,0.0075,0.0095,0.0095,0.0095,0.0094,0,0,0.0207,0.0206,0.0208,0.0215,0.021,0.0212,0.0217,0.0217,0.0225,0.0204,0.0209,0.0189,0.0175,0.0169,0.0152,0.0136,0.012,0.0118,0.0117,0.0105,0.0084,0.0078,0.0075,0.0109,0.0108,0.0108,0.007,0,0.022,0.0232,0.0228,0.0245,0.0251,0.0245,0.0254,0.0252,0.0246,0.0246,0.0221,0.0218,0.0191,0.0188,0.0167,0.0137,0.0116,0.0132,0.0079,0.0077,0.0074,0.0073,0.0108,0.0068,0.0067,0.0067,0.0067,0,0.0232,0.024,0.0257,0.0273,0.0277,0.0285,0.0301,0.0307,0.0302,0.0296,0.0283,0.0263,0.0242,0.0215,0.0162,0.0173,0.0131,0.0101,0.0098,0.0086,0.0068,0.0063,0.0063,0.0063,0.0063,0.0064,0.0064,0,0.0249,0.0264,0.028,0.0285,0.0297,0.0308,0.0318,0.0322,0.0337,0.0329,0.0335,0.0301,0.0292,0.0235,0.0172,0.0166,0.011,0.0094,0.0047,0.0046,0.0053,0.0053,0.0051,0.0051,0.0051,0.0051,0.0051,0,0.0264,0.0279,0.029,0.03,0.033,0.033,0.036,0.0365,0.0377,0.04,0.0364,0.0371,0.0296,0.0255,0.0186,0.0115,0.0119,0.0052,0.0037,0.0062,0.0063,0.0051,0.0051,0.0049,0.005,0.005,0.005,0,0.0274,0.0281,0.0305,0.0326,0.0337,0.0358,0.0394,0.0418,0.0423,0.0451,0.0452,0.0426,0.0375,0.0295,0.0207,0.0143,0.0068,0.0038,0.0075,0.0062,0.0008,0.001,-0.0018,-0.0018,-0.0019,-0.0019,-0.0019,0,0.0278,0.029,0.0325,0.0347,0.0358,0.0391,0.0419,0.0439,0.0469,0.0487,0.0505,0.0468,0.0436,0.0314,0.0223,0.0091,0.0067,0.0019,0.0007,0.0014,0.0002,0.0004,0.0007,-0.002,-0.002,-0.002,-0.002,0,0.0289,0.0303,0.0324,0.0369,0.0403,0.0444,0.0485,0.051,0.0537,0.0544,0.0548,0.0483,0.0427,0.0324,0.0224,0.0127,0.0046,0.0014,0.0014,0.0002,0.0011,-0.0,0.0003,-0.0022,-0.0022,-0.0021,-0.0021,0,0.0299,0.0317,0.0349,0.0389,0.0436,0.0483,0.0503,0.0537,0.0564,0.0581,0.0583,0.0515,0.0479,0.0343,0.0252,0.0157,0.0124,0.0076,0.0072,0.0072,0.0105,0.013,0.0124,0,0,0,0,0,0.0308,0.033,0.0367,0.0413,0.0461,0.049,0.0544,0.0561,0.0588,0.0596,0.059,0.0534,0.0405,0.0357,0.0261,0.0234,0.0102,0.0116,0.0043,-0.003,-0.0028,-0.0005,0,0,0,0,0,0,0.0315,0.035,0.0366,0.0426,0.0461,0.0517,0.0554,0.0573,0.0578,0.0589,0.0529,0.0495,0.0378,0.0461,0.0256,0.0228,0.0163,0.0059,0.0057,-0.0031,-0.0029,-0.0028,-0.0004,0,0,0,0,0]}]]